| time (UTC) | temp F | wind direction | speed MPH | gust MPH | rain 1hr in | rain 24hr in | rain mn in | humidity % | barometer mb |
| 20260507014536 | 49 | 360 | 4.0 | 5.0 | 0.00 | 0.00 | 0.00 | 29 | 929.3 |
| 20260507014035 | 50 | 360 | 4.0 | 5.0 | 0.00 | 0.00 | 0.00 | 28 | 929.3 |
| 20260507013033 | 52 | 360 | 5.0 | 9.0 | 0.00 | 0.00 | 0.00 | 26 | 929.3 |
| 20260507012535 | 52 | 350 | 6.0 | 9.0 | 0.00 | 0.00 | 0.00 | 25 | 929.4 |
| 20260507012032 | 52 | 335 | 7.0 | 11.0 | 0.00 | 0.00 | 0.00 | 25 | 929.3 |
| 20260507011542 | 52 | 325 | 7.0 | 13.0 | 0.00 | 0.00 | 0.00 | 25 | 929.3 |
| 20260507011031 | 53 | 360 | 9.0 | 14.0 | 0.00 | 0.00 | 0.00 | 24 | 929.2 |
| 20260507010531 | 53 | 360 | 9.0 | 15.0 | 0.00 | 0.00 | 0.00 | 24 | 929.3 |
| 20260507010035 | 53 | 360 | 6.0 | 13.0 | 0.00 | 0.00 | 0.00 | 24 | 929.3 |
| 20260507005530 | 53 | 360 | 10.0 | 13.0 | 0.00 | 0.00 | 0.00 | 24 | 929.3 |
| 20260507005031 | 54 | 360 | 5.0 | 14.0 | 0.00 | 0.00 | 0.00 | 23 | 929.3 |
| 20260507004532 | 54 | 360 | 9.0 | 14.0 | 0.00 | 0.00 | 0.00 | 23 | 929.4 |
| 20260507004031 | 54 | 360 | 8.0 | 14.0 | 0.00 | 0.00 | 0.00 | 24 | 929.4 |
| 20260507003031 | 54 | 360 | 10.0 | 15.0 | 0.00 | 0.00 | 0.00 | 25 | 929.4 |
| 20260507002530 | 54 | 360 | 9.0 | 21.0 | 0.00 | 0.00 | 0.00 | 25 | 929.4 |
| 20260507002031 | 54 | 360 | 12.0 | 21.0 | 0.00 | 0.00 | 0.00 | 24 | 929.6 |
| 20260507001602 | 54 | 360 | 11.0 | 18.0 | 0.00 | 0.00 | 0.00 | 24 | 929.4 |
| 20260507001033 | 54 | 360 | 10.0 | 19.0 | 0.00 | 0.00 | 0.00 | 24 | 929.5 |
| 20260507000529 | 54 | 360 | 12.0 | 19.0 | 0.00 | 0.00 | 0.00 | 23 | 929.6 |
| 20260507000035 | 55 | 360 | 11.0 | 19.0 | 0.00 | 0.00 | 0.00 | 23 | 929.6 |
| 20260506235532 | 55 | 360 | 4.0 | 15.0 | 0.00 | 0.00 | 0.00 | 23 | 929.5 |
| 20260506235028 | 55 | 360 | 10.0 | 22.0 | 0.00 | 0.00 | 0.00 | 23 | 929.7 |
| 20260506234528 | 55 | 360 | 15.0 | 22.0 | 0.00 | 0.00 | 0.00 | 23 | 929.6 |
| 20260506234029 | 55 | 360 | 14.0 | 20.0 | 0.00 | 0.00 | 0.00 | 23 | 929.7 |
| 20260506233027 | 55 | 360 | 9.0 | 19.0 | 0.00 | 0.00 | 0.00 | 23 | 929.7 |
| 20260506232528 | 55 | 360 | 13.0 | 21.0 | 0.00 | 0.00 | 0.00 | 23 | 929.7 |
| 20260506232027 | 55 | 360 | 10.0 | 21.0 | 0.00 | 0.00 | 0.00 | 23 | 929.8 |
| 20260506231527 | 55 | 360 | 12.0 | 22.0 | 0.00 | 0.00 | 0.00 | 23 | 929.7 |
| 20260506231027 | 55 | 360 | 17.0 | 22.0 | 0.00 | 0.00 | 0.00 | 23 | 929.7 |
| 20260506230530 | 55 | 360 | 7.0 | 24.0 | 0.00 | 0.00 | 0.00 | 23 | 929.8 |
| 20260506230040 | 55 | 360 | 10.0 | 24.0 | 0.00 | 0.00 | 0.00 | 24 | 929.7 |
| 20260506225526 | 55 | 360 | 11.0 | 21.0 | 0.00 | 0.00 | 0.00 | 23 | 929.7 |
| 20260506225026 | 56 | 360 | 14.0 | 21.0 | 0.00 | 0.00 | 0.00 | 23 | 929.8 |
| 20260506224525 | 55 | 360 | 9.0 | 15.0 | 0.00 | 0.00 | 0.00 | 24 | 929.8 |
| 20260506224024 | 55 | 360 | 11.0 | 15.0 | 0.00 | 0.00 | 0.00 | 23 | 929.8 |
| 20260506223030 | 55 | 360 | 10.0 | 16.0 | 0.00 | 0.00 | 0.00 | 23 | 930.0 |
| 20260506222525 | 55 | 360 | 9.0 | 13.0 | 0.00 | 0.00 | 0.00 | 24 | 929.8 |
| 20260506222023 | 54 | 360 | 8.0 | 21.0 | 0.00 | 0.00 | 0.00 | 25 | 930.0 |
| 20260506221522 | 55 | 360 | 9.0 | 21.0 | 0.00 | 0.00 | 0.00 | 24 | 930.0 |
| 20260506221024 | 55 | 360 | 4.0 | 18.0 | 0.00 | 0.00 | 0.00 | 24 | 930.0 |
| 20260506220521 | 55 | 360 | 12.0 | 19.0 | 0.00 | 0.00 | 0.00 | 24 | 930.2 |
| 20260506220020 | 55 | 360 | 8.0 | 18.0 | 0.00 | 0.00 | 0.00 | 25 | 930.3 |
| 20260506215520 | 54 | 360 | 7.0 | 18.0 | 0.00 | 0.00 | 0.00 | 24 | 930.3 |
| 20260506215019 | 54 | 360 | 8.0 | 18.0 | 0.00 | 0.00 | 0.00 | 25 | 930.3 |
| 20260506214518 | 54 | 360 | 7.0 | 18.0 | 0.00 | 0.00 | 0.00 | 24 | 930.5 |
| 20260506214018 | 54 | 360 | 6.0 | 12.0 | 0.00 | 0.00 | 0.00 | 24 | 930.7 |
| 20260506213018 | 54 | 360 | 13.0 | 21.0 | 0.00 | 0.00 | 0.00 | 24 | 930.9 |
| 20260506212517 | 55 | 360 | 12.0 | 20.0 | 0.00 | 0.00 | 0.00 | 25 | 930.9 |
| 20260506212017 | 54 | 360 | 7.0 | 20.0 | 0.00 | 0.00 | 0.00 | 25 | 930.9 |
| 20260506211520 | 54 | 360 | 10.0 | 23.0 | 0.00 | 0.00 | 0.00 | 25 | 931.0 |
| 20260506211015 | 54 | 360 | 14.0 | 23.0 | 0.00 | 0.00 | 0.00 | 26 | 931.1 |
| 20260506210520 | 54 | 360 | 6.0 | 14.0 | 0.00 | 0.00 | 0.00 | 25 | 931.2 |
| 20260506210029 | 53 | 360 | 3.0 | 14.0 | 0.00 | 0.00 | 0.00 | 25 | 931.3 |
| 20260506205513 | 54 | 360 | 9.0 | 14.0 | 0.00 | 0.00 | 0.00 | 26 | 931.3 |
| 20260506205016 | 53 | 331 | 8.0 | 19.0 | 0.00 | 0.00 | 0.00 | 26 | 931.4 |
| 20260506204512 | 54 | 309 | 13.0 | 20.0 | 0.00 | 0.00 | 0.00 | 24 | 931.5 |
| 20260506204012 | 54 | 271 | 13.0 | 20.0 | 0.00 | 0.00 | 0.00 | 26 | 931.5 |
| 20260506203011 | 54 | 349 | 9.0 | 16.0 | 0.00 | 0.00 | 0.00 | 24 | 931.8 |
| 20260506202510 | 54 | 259 | 10.0 | 18.0 | 0.00 | 0.00 | 0.00 | 25 | 931.7 |
| 20260506202009 | 53 | 243 | 10.0 | 18.0 | 0.00 | 0.00 | 0.00 | 26 | 931.7 |
| 20260506201511 | 52 | 339 | 7.0 | 19.0 | 0.00 | 0.00 | 0.00 | 25 | 931.7 |
| 20260506201009 | 52 | 340 | 8.0 | 19.0 | 0.00 | 0.00 | 0.00 | 26 | 931.8 |
| 20260506200507 | 53 | 290 | 7.0 | 21.0 | 0.00 | 0.00 | 0.00 | 25 | 932.0 |
| 20260506200006 | 53 | 284 | 12.0 | 21.0 | 0.00 | 0.00 | 0.00 | 25 | 932.0 |
| 20260506195507 | 53 | 360 | 9.0 | 15.0 | 0.00 | 0.00 | 0.00 | 24 | 932.1 |
| 20260506195005 | 52 | 297 | 9.0 | 16.0 | 0.00 | 0.00 | 0.00 | 25 | 932.2 |
| 20260506194506 | 52 | 360 | 11.0 | 21.0 | 0.00 | 0.00 | 0.00 | 25 | 932.2 |
| 20260506194007 | 52 | 360 | 12.0 | 18.0 | 0.00 | 0.00 | 0.00 | 25 | 932.4 |
| 20260506193004 | 51 | 360 | 14.0 | 21.0 | 0.00 | 0.00 | 0.00 | 25 | 932.6 |
| 20260506192503 | 52 | 360 | 14.0 | 21.0 | 0.00 | 0.00 | 0.00 | 26 | 932.6 |
| 20260506192003 | 51 | 360 | 10.0 | 19.0 | 0.00 | 0.00 | 0.00 | 26 | 932.6 |
| 20260506191507 | 52 | 360 | 14.0 | 19.0 | 0.00 | 0.00 | 0.00 | 25 | 932.6 |
| 20260506191001 | 51 | 360 | 9.0 | 18.0 | 0.00 | 0.00 | 0.00 | 26 | 932.7 |
| 20260506190501 | 52 | 360 | 9.0 | 15.0 | 0.00 | 0.00 | 0.00 | 26 | 932.8 |
| 20260506185602 | 50 | 254 | 5.0 | 11.0 | 0.00 | 0.00 | 0.00 | 27 | 933.1 |
| 20260506185103 | 50 | 254 | 6.0 | 16.0 | 0.00 | 0.00 | 0.00 | 27 | 933.3 |
| 20260506184559 | 51 | 272 | 11.0 | 16.0 | 0.00 | 0.00 | 0.00 | 26 | 933.3 |
| 20260506184058 | 51 | 238 | 9.0 | 18.0 | 0.00 | 0.00 | 0.00 | 27 | 933.4 |
| 20260506183657 | 50 | 242 | 10.0 | 16.0 | 0.00 | 0.00 | 0.00 | 27 | 933.3 |
| 20260506183105 | 50 | 228 | 8.0 | 16.0 | 0.00 | 0.00 | 0.00 | 28 | 933.5 |
| 20260506182555 | 49 | 329 | 7.0 | 19.0 | 0.00 | 0.00 | 0.00 | 28 | 933.7 |
| 20260506182055 | 49 | 311 | 11.0 | 19.0 | 0.00 | 0.00 | 0.00 | 27 | 933.8 |
| 20260506181558 | 49 | 293 | 11.0 | 16.0 | 0.00 | 0.00 | 0.00 | 28 | 933.9 |
| 20260506181054 | 49 | 271 | 10.0 | 20.0 | 0.00 | 0.00 | 0.00 | 26 | 934.0 |
| 20260506180553 | 49 | 259 | 10.0 | 16.0 | 0.00 | 0.00 | 0.00 | 28 | 934.0 |
| 20260506180054 | 48 | 9 | 10.0 | 19.0 | 0.00 | 0.00 | 0.00 | 27 | 934.2 |
| 20260506175553 | 49 | 327 | 11.0 | 19.0 | 0.00 | 0.00 | 0.00 | 27 | 934.2 |
| 20260506175054 | 49 | 329 | 8.0 | 18.0 | 0.00 | 0.00 | 0.00 | 26 | 934.3 |
| 20260506174551 | 48 | 322 | 10.0 | 22.0 | 0.00 | 0.00 | 0.00 | 26 | 934.4 |
| 20260506174051 | 49 | 338 | 14.0 | 22.0 | 0.00 | 0.00 | 0.00 | 27 | 934.4 |
| 20260506173650 | 48 | 302 | 9.0 | 18.0 | 0.00 | 0.00 | 0.00 | 26 | 934.3 |
| 20260506173057 | 48 | 292 | 11.0 | 18.0 | 0.00 | 0.00 | 0.00 | 26 | 934.5 |
| 20260506172549 | 48 | 271 | 6.0 | 15.0 | 0.00 | 0.00 | 0.00 | 28 | 934.5 |
| 20260506172048 | 47 | 300 | 7.0 | 20.0 | 0.00 | 0.00 | 0.00 | 27 | 934.5 |
| 20260506171549 | 48 | 289 | 13.0 | 20.0 | 0.00 | 0.00 | 0.00 | 27 | 934.7 |
| 20260506171047 | 47 | 289 | 11.0 | 19.0 | 0.00 | 0.00 | 0.00 | 27 | 934.7 |
| 20260506170546 | 47 | 257 | 9.0 | 18.0 | 0.00 | 0.00 | 0.00 | 27 | 934.8 |
| 20260506170053 | 47 | 342 | 10.0 | 16.0 | 0.00 | 0.00 | 0.00 | 28 | 934.8 |
| 20260506165546 | 48 | 251 | 9.0 | 16.0 | 0.00 | 0.00 | 0.00 | 28 | 934.9 |
| 20260506165046 | 47 | 261 | 10.0 | 18.0 | 0.00 | 0.00 | 0.00 | 29 | 934.9 |
| 20260506164555 | 47 | 249 | 8.0 | 18.0 | 0.00 | 0.00 | 0.00 | 29 | 935.0 |
| 20260506164042 | 46 | 329 | 7.0 | 16.0 | 0.00 | 0.00 | 0.00 | 29 | 935.2 |
| 20260506163642 | 46 | 269 | 13.0 | 20.0 | 0.00 | 0.00 | 0.00 | 29 | 935.2 |
| 20260506163046 | 46 | 319 | 12.0 | 20.0 | 0.00 | 0.00 | 0.00 | 29 | 935.3 |
| 20260506162545 | 46 | 311 | 10.0 | 13.0 | 0.00 | 0.00 | 0.00 | 29 | 935.2 |
| 20260506162042 | 46 | 313 | 8.0 | 15.0 | 0.00 | 0.00 | 0.00 | 29 | 935.2 |
| 20260506161540 | 46 | 286 | 11.0 | 15.0 | 0.00 | 0.00 | 0.00 | 30 | 935.3 |
| 20260506161039 | 46 | 293 | 9.0 | 15.0 | 0.00 | 0.00 | 0.00 | 30 | 935.3 |
| 20260506160540 | 45 | 314 | 4.0 | 19.0 | 0.00 | 0.00 | 0.00 | 32 | 935.4 |
| 20260506160037 | 45 | 323 | 10.0 | 19.0 | 0.00 | 0.00 | 0.00 | 30 | 935.5 |
| 20260506155535 | 45 | 328 | 7.0 | 16.0 | 0.00 | 0.00 | 0.00 | 30 | 935.4 |
| 20260506155035 | 45 | 317 | 10.0 | 16.0 | 0.00 | 0.00 | 0.00 | 30 | 935.5 |
| 20260506154536 | 45 | 259 | 7.0 | 15.0 | 0.00 | 0.00 | 0.00 | 32 | 935.5 |
| 20260506154034 | 45 | 336 | 8.0 | 15.0 | 0.00 | 0.00 | 0.00 | 31 | 935.4 |
| 20260506153633 | 44 | 314 | 10.0 | 16.0 | 0.00 | 0.00 | 0.00 | 33 | 935.5 |
| 20260506153032 | 44 | 290 | 9.0 | 16.0 | 0.00 | 0.00 | 0.00 | 34 | 935.5 |
| 20260506152532 | 44 | 329 | 7.0 | 16.0 | 0.00 | 0.00 | 0.00 | 35 | 935.6 |
| 20260506152030 | 43 | 269 | 8.0 | 13.0 | 0.00 | 0.00 | 0.00 | 36 | 935.8 |
| 20260506151530 | 43 | 270 | 6.0 | 11.0 | 0.00 | 0.00 | 0.00 | 38 | 935.9 |
| 20260506151027 | 43 | 312 | 8.0 | 11.0 | 0.00 | 0.00 | 0.00 | 39 | 935.9 |
| 20260506150527 | 42 | 335 | 4.0 | 9.0 | 0.00 | 0.00 | 0.00 | 39 | 935.9 |
| 20260506150026 | 41 | 277 | 5.0 | 11.0 | 0.00 | 0.00 | 0.00 | 41 | 936.0 |
| 20260506145523 | 40 | 278 | 7.0 | 10.0 | 0.00 | 0.00 | 0.00 | 41 | 936.0 |
| 20260506145021 | 39 | 360 | 1.0 | 9.0 | 0.00 | 0.00 | 0.00 | 43 | 936.0 |
| 20260506144526 | 39 | 360 | 3.0 | 12.0 | 0.00 | 0.00 | 0.00 | 42 | 936.2 |
| 20260506144019 | 39 | 360 | 8.0 | 12.0 | 0.00 | 0.00 | 0.00 | 43 | 936.2 |
| 20260506143619 | 38 | 360 | 7.0 | 10.0 | 0.00 | 0.00 | 0.00 | 43 | 936.2 |
| 20260506143020 | 38 | 360 | 7.0 | 11.0 | 0.00 | 0.00 | 0.00 | 44 | 936.2 |
| 20260506142517 | 37 | 360 | 7.0 | 12.0 | 0.00 | 0.00 | 0.00 | 45 | 936.2 |
| 20260506142017 | 37 | 360 | 8.0 | 12.0 | 0.00 | 0.00 | 0.00 | 45 | 936.2 |
| 20260506141526 | 36 | 360 | 7.0 | 10.0 | 0.00 | 0.00 | 0.00 | 47 | 936.2 |
| 20260506141015 | 35 | 360 | 5.0 | 9.0 | 0.00 | 0.00 | 0.00 | 50 | 936.4 |
| 20260506140512 | 34 | 360 | 7.0 | 9.0 | 0.00 | 0.00 | 0.00 | 51 | 936.4 |
| 20260506140012 | 34 | 360 | 7.0 | 9.0 | 0.00 | 0.00 | 0.00 | 52 | 936.4 |
| 20260506135509 | 33 | 360 | 4.0 | 6.0 | 0.00 | 0.00 | 0.00 | 55 | 936.4 |
| 20260506135008 | 32 | 360 | 1.0 | 6.0 | 0.00 | 0.00 | 0.00 | 57 | 936.4 |
| 20260506134507 | 31 | 360 | 4.0 | 6.0 | 0.00 | 0.00 | 0.00 | 58 | 936.6 |
| 20260506134006 | 30 | 360 | 2.0 | 5.0 | 0.00 | 0.00 | 0.00 | 59 | 936.5 |
| 20260506133604 | 30 | 360 | 3.0 | 5.0 | 0.00 | 0.00 | 0.00 | 60 | 936.5 |
| 20260506133003 | 29 | 360 | 4.0 | 5.0 | 0.00 | 0.00 | 0.00 | 62 | 936.6 |
| 20260506132502 | 28 | 360 | 2.0 | 5.0 | 0.00 | 0.00 | 0.00 | 63 | 936.5 |
| 20260506132001 | 27 | 360 | 2.0 | 5.0 | 0.00 | 0.00 | 0.00 | 64 | 936.5 |
| 20260506131616 | 27 | 360 | 1.0 | 4.0 | 0.00 | 0.00 | 0.00 | 66 | 936.6 |
| 20260506131059 | 26 | 360 | 1.0 | 4.0 | 0.00 | 0.00 | 0.00 | 68 | 936.5 |
| 20260506130557 | 26 | 360 | 0.0 | 2.0 | 0.00 | 0.00 | 0.00 | 70 | 936.5 |
| 20260506130058 | 25 | 360 | 0.0 | 0.0 | 0.00 | 0.00 | 0.00 | 72 | 936.5 |
| 20260506125556 | 24 | 360 | 0.0 | 2.0 | 0.00 | 0.00 | 0.00 | 73 | 936.5 |
| 20260506125056 | 23 | 360 | 1.0 | 2.0 | 0.00 | 0.00 | 0.00 | 74 | 936.5 |
| 20260506124555 | 21 | 360 | 0.0 | 0.0 | 0.00 | 0.00 | 0.00 | 75 | 936.4 |
| 20260506124054 | 20 | 360 | 0.0 | 0.0 | 0.00 | 0.00 | 0.00 | 75 | 936.4 |
| 20260506123554 | 19 | 360 | 0.0 | 0.0 | 0.00 | 0.00 | 0.00 | 76 | 936.3 |
| 20260506122554 | 18 | 360 | 0.0 | 1.0 | 0.00 | 0.00 | 0.00 | 75 | 936.3 |
| 20260506122053 | 17 | 360 | 0.0 | 1.0 | 0.00 | 0.00 | 0.00 | 75 | 936.2 |
| 20260506121557 | 16 | 360 | 0.0 | 2.0 | 0.00 | 0.00 | 0.00 | 74 | 936.3 |
| 20260506121053 | 16 | 360 | 0.0 | 4.0 | 0.00 | 0.00 | 0.00 | 74 | 936.2 |
| 20260506120552 | 16 | 360 | 1.0 | 3.0 | 0.00 | 0.00 | 0.00 | 74 | 936.2 |
| 20260506115553 | 15 | 360 | 0.0 | 2.0 | 0.00 | 0.00 | 0.00 | 73 | 936.1 |
| 20260506115049 | 16 | 360 | 1.0 | 3.0 | 0.00 | 0.00 | 0.00 | 72 | 936.0 |
| 20260506114549 | 16 | 360 | 1.0 | 3.0 | 0.00 | 0.00 | 0.00 | 71 | 936.0 |
| 20260506114053 | 17 | 360 | 1.0 | 4.0 | 0.00 | 0.00 | 0.00 | 71 | 935.9 |
| 20260506113549 | 17 | 360 | 3.0 | 4.0 | 0.00 | 0.00 | 0.00 | 72 | 935.9 |
| 20260506112553 | 17 | 360 | 2.0 | 3.0 | 0.00 | 0.00 | 0.00 | 72 | 935.8 |
| 20260506112050 | 17 | 360 | 1.0 | 3.0 | 0.00 | 0.00 | 0.00 | 71 | 935.9 |
| 20260506111551 | 17 | 360 | 1.0 | 4.0 | 0.00 | 0.00 | 0.00 | 71 | 935.8 |
| 20260506111050 | 18 | 360 | 2.0 | 5.0 | 0.00 | 0.00 | 0.00 | 72 | 935.9 |
| 20260506110550 | 18 | 360 | 3.0 | 5.0 | 0.00 | 0.00 | 0.00 | 74 | 935.9 |
| 20260506110059 | 17 | 360 | 3.0 | 5.0 | 0.00 | 0.00 | 0.00 | 75 | 935.9 |
| 20260506105549 | 16 | 360 | 4.0 | 5.0 | 0.00 | 0.00 | 0.00 | 75 | 935.9 |
| 20260506105047 | 16 | 360 | 2.0 | 4.0 | 0.00 | 0.00 | 0.00 | 74 | 935.9 |
| 20260506104600 | 16 | 360 | 2.0 | 4.0 | 0.00 | 0.00 | 0.00 | 73 | 935.9 |
| 20260506104045 | 16 | 360 | 2.0 | 2.0 | 0.00 | 0.00 | 0.00 | 73 | 935.9 |
| 20260506103544 | 17 | 360 | 2.0 | 3.0 | 0.00 | 0.00 | 0.00 | 71 | 935.9 |
| 20260506102546 | 18 | 360 | 2.0 | 3.0 | 0.00 | 0.00 | 0.00 | 73 | 936.0 |
| 20260506102045 | 19 | 360 | 2.0 | 4.0 | 0.00 | 0.00 | 0.00 | 74 | 936.0 |
| 20260506101543 | 18 | 360 | 2.0 | 3.0 | 0.00 | 0.00 | 0.00 | 75 | 935.9 |
| 20260506101041 | 18 | 360 | 2.0 | 3.0 | 0.00 | 0.00 | 0.00 | 74 | 935.9 |
| 20260506100543 | 18 | 360 | 2.0 | 4.0 | 0.00 | 0.00 | 0.00 | 75 | 935.9 |
| 20260506100051 | 18 | 360 | 2.0 | 4.0 | 0.00 | 0.00 | 0.00 | 74 | 935.9 |
| 20260506095540 | 17 | 360 | 2.0 | 3.0 | 0.00 | 0.00 | 0.00 | 72 | 936.0 |
| 20260506095041 | 18 | 360 | 2.0 | 4.0 | 0.00 | 0.00 | 0.00 | 71 | 936.0 |
| 20260506094542 | 19 | 360 | 2.0 | 3.0 | 0.00 | 0.00 | 0.00 | 69 | 935.9 |
| 20260506094040 | 20 | 360 | 1.0 | 4.0 | 0.00 | 0.00 | 0.00 | 70 | 935.9 |
| 20260506093540 | 20 | 360 | 2.0 | 4.0 | 0.00 | 0.00 | 0.00 | 68 | 935.9 |
| 20260506092541 | 20 | 360 | 3.0 | 5.0 | 0.00 | 0.00 | 0.00 | 65 | 935.8 |
| 20260506092041 | 20 | 360 | 4.0 | 5.0 | 0.00 | 0.00 | 0.00 | 67 | 935.9 |
| 20260506091540 | 19 | 360 | 3.0 | 5.0 | 0.00 | 0.00 | 0.00 | 69 | 935.8 |
| 20260506091040 | 18 | 360 | 3.0 | 5.0 | 0.00 | 0.00 | 0.00 | 71 | 935.8 |
| 20260506090538 | 18 | 360 | 3.0 | 4.0 | 0.00 | 0.00 | 0.00 | 71 | 935.9 |
| 20260506090040 | 18 | 360 | 2.0 | 4.0 | 0.00 | 0.00 | 0.00 | 71 | 935.9 |
| 20260506085536 | 17 | 360 | 2.0 | 4.0 | 0.00 | 0.00 | 0.00 | 70 | 935.8 |
| 20260506085035 | 18 | 360 | 1.0 | 3.0 | 0.00 | 0.00 | 0.00 | 70 | 935.9 |
| 20260506084609 | 18 | 360 | 0.0 | 0.0 | 0.00 | 0.00 | 0.00 | 69 | 935.9 |
| 20260506084034 | 18 | 360 | 0.0 | 1.0 | 0.00 | 0.00 | 0.00 | 68 | 935.9 |
| 20260506083533 | 19 | 360 | 0.0 | 4.0 | 0.00 | 0.00 | 0.00 | 66 | 935.9 |
| 20260506082532 | 19 | 360 | 1.0 | 3.0 | 0.00 | 0.00 | 0.00 | 65 | 935.9 |
| 20260506082031 | 20 | 360 | 1.0 | 3.0 | 0.00 | 0.00 | 0.00 | 66 | 935.8 |
| 20260506081539 | 20 | 360 | 2.0 | 3.0 | 0.00 | 0.00 | 0.00 | 67 | 935.9 |
| 20260506081034 | 19 | 360 | 2.0 | 3.0 | 0.00 | 0.00 | 0.00 | 68 | 935.8 |
| 20260506080530 | 19 | 360 | 2.0 | 4.0 | 0.00 | 0.00 | 0.00 | 67 | 935.9 |
| 20260506073525 | 21 | 360 | 1.0 | 3.0 | 0.00 | 0.00 | 0.00 | 67 | 935.9 |
| 20260506072525 | 21 | 360 | 0.0 | 1.0 | 0.00 | 0.00 | 0.00 | 65 | 936.0 |
| 20260506072023 | 22 | 360 | 0.0 | 1.0 | 0.00 | 0.00 | 0.00 | 64 | 936.0 |
| 20260506071521 | 23 | 360 | 0.0 | 4.0 | 0.00 | 0.00 | 0.00 | 63 | 935.9 |
| 20260506071021 | 23 | 360 | 0.0 | 4.0 | 0.00 | 0.00 | 0.00 | 62 | 935.9 |
| 20260506070521 | 23 | 360 | 2.0 | 4.0 | 0.00 | 0.00 | 0.00 | 62 | 935.8 |
| 20260506062017 | 25 | 360 | 4.0 | 5.0 | 0.00 | 0.00 | 0.00 | 60 | 935.8 |
| 20260506061514 | 25 | 360 | 3.0 | 3.0 | 0.00 | 0.00 | 0.00 | 60 | 935.8 |
| 20260506061013 | 25 | 360 | 2.0 | 4.0 | 0.00 | 0.00 | 0.00 | 60 | 935.8 |
| 20260506060515 | 25 | 360 | 0.0 | 1.0 | 0.00 | 0.00 | 0.00 | 61 | 935.7 |
| 20260506051003 | 27 | 360 | 4.0 | 6.0 | 0.00 | 0.00 | 0.00 | 59 | 935.6 |
| 20260506050502 | 28 | 360 | 4.0 | 5.0 | 0.00 | 0.00 | 0.00 | 58 | 935.5 |
| 20260506045100 | 29 | 360 | 4.0 | 5.0 | 0.00 | 0.00 | 0.00 | 57 | 935.5 |
| 20260506044602 | 29 | 360 | 4.0 | 5.0 | 0.00 | 0.00 | 0.00 | 58 | 935.5 |
| 20260506044059 | 29 | 360 | 3.0 | 5.0 | 0.00 | 0.00 | 0.00 | 58 | 935.5 |
| 20260506043557 | 29 | 360 | 3.0 | 5.0 | 0.00 | 0.00 | 0.00 | 58 | 935.5 |
| 20260506042558 | 30 | 360 | 3.0 | 5.0 | 0.00 | 0.00 | 0.00 | 56 | 935.5 |
| 20260506042100 | 30 | 360 | 1.0 | 4.0 | 0.00 | 0.00 | 0.00 | 56 | 935.5 |
| 20260506041607 | 30 | 360 | 2.0 | 6.0 | 0.00 | 0.00 | 0.00 | 56 | 935.6 |
| 20260506041056 | 30 | 360 | 3.0 | 6.0 | 0.00 | 0.00 | 0.00 | 56 | 935.5 |
| 20260506040555 | 30 | 360 | 5.0 | 6.0 | 0.00 | 0.00 | 0.00 | 55 | 935.5 |
| 20260506040054 | 31 | 360 | 4.0 | 6.0 | 0.00 | 0.00 | 0.00 | 56 | 935.5 |
| 20260506035554 | 31 | 360 | 4.0 | 6.0 | 0.00 | 0.00 | 0.00 | 55 | 935.4 |
| 20260506035052 | 31 | 360 | 4.0 | 6.0 | 0.00 | 0.00 | 0.00 | 55 | 935.4 |
| 20260506034554 | 32 | 360 | 3.0 | 6.0 | 0.00 | 0.00 | 0.00 | 54 | 935.4 |
| 20260506034053 | 32 | 360 | 4.0 | 6.0 | 0.00 | 0.00 | 0.00 | 54 | 935.4 |
| 20260506033551 | 32 | 360 | 2.0 | 4.0 | 0.00 | 0.00 | 0.00 | 54 | 935.3 |
| 20260506032552 | 32 | 360 | 2.0 | 3.0 | 0.00 | 0.00 | 0.00 | 55 | 935.4 |
| 20260506032051 | 31 | 360 | 2.0 | 5.0 | 0.00 | 0.00 | 0.00 | 54 | 935.3 |
| 20260506031554 | 32 | 360 | 2.0 | 6.0 | 0.00 | 0.00 | 0.00 | 53 | 935.2 |
| 20260506031050 | 31 | 360 | 5.0 | 6.0 | 0.00 | 0.00 | 0.00 | 54 | 935.2 |
| 20260506030550 | 31 | 360 | 3.0 | 5.0 | 0.00 | 0.00 | 0.00 | 53 | 935.1 |
| 20260506030049 | 32 | 360 | 1.0 | 7.0 | 0.00 | 0.00 | 0.00 | 52 | 935.1 |
| 20260506025547 | 33 | 360 | 2.0 | 8.0 | 0.00 | 0.00 | 0.00 | 51 | 935.2 |
| 20260506025049 | 33 | 360 | 5.0 | 8.0 | 0.00 | 0.00 | 0.00 | 50 | 935.1 |
| 20260506024545 | 34 | 360 | 6.0 | 8.0 | 0.00 | 0.00 | 0.00 | 50 | 935.0 |
| 20260506024044 | 34 | 360 | 6.0 | 7.0 | 0.00 | 0.00 | 0.00 | 50 | 934.9 |
| 20260506023545 | 35 | 360 | 5.0 | 8.0 | 0.00 | 0.00 | 0.00 | 49 | 934.9 |
| 20260506022543 | 35 | 360 | 5.0 | 7.0 | 0.00 | 0.00 | 0.00 | 49 | 934.8 |
| 20260506022042 | 36 | 360 | 5.0 | 8.0 | 0.00 | 0.00 | 0.00 | 47 | 934.7 |
| 20260506021606 | 37 | 360 | 6.0 | 8.0 | 0.00 | 0.00 | 0.00 | 46 | 934.7 |
| 20260506021049 | 38 | 360 | 5.0 | 8.0 | 0.00 | 0.00 | 0.00 | 45 | 934.7 |
| 20260506020542 | 39 | 360 | 6.0 | 9.0 | 0.00 | 0.00 | 0.00 | 45 | 934.7 |
| 20260506020041 | 40 | 360 | 6.0 | 10.0 | 0.00 | 0.00 | 0.00 | 43 | 934.7 |
| 20260506015541 | 40 | 360 | 7.0 | 12.0 | 0.00 | 0.00 | 0.00 | 42 | 934.6 |
| 20260506015044 | 41 | 360 | 10.0 | 12.0 | 0.00 | 0.00 | 0.00 | 41 | 934.6 |